Change the Weather History Date:

Saturday, June 29, 2013

  Actual Average Record
Temperature  
Mean Temperature 85 °F -  
Max Temperature 103 °F 85 °F 103 °F (2013)
Min Temperature 67 °F 54 °F 48 °F (1980)
Degree Days  
Heating Degree Days 0 1  
Month to date heating degree days 55 87  
Since 1 June heating degree days 55 87  
Since 1 July heating degree days 5737 6171  
Cooling Degree Days 20 5  
Month to date cooling degree days 158 82  
Year to date cooling degree days 183 104  
Since 1 June cooling degree days 158 82  
Growing Degree Days 36 (Base 50)    
Moisture  
Dew Point 47 °F    
Average Humidity 32    
Maximum Humidity 47    
Minimum Humidity 16    
Precipitation  
Precipitation T in 0.02 in 0.02 in (1992)
Month to date precipitation 0.18 0.92  
Year to date precipitation 3.03 6.25  
Sea Level Pressure  
Sea Level Pressure 29.87 in    
Wind  
Wind Speed 10 mph (South)    
Max Wind Speed 37 mph    
Max Gust Speed 47 mph    
Visibility 10 miles    
Events Rain , Thunderstorm    
T = Trace of Precipitation, MM = Missing Value Source: NWS Daily Summary

Daily Weather History Graph

Daily Weather History Graph

Search for Another Location

Airport or City:

Trip Planner

Search our weather history database for the weather conditions in past years. The results will help you decide how hot, cold, wet, or windy it might be!

Date:

Astronomy

Jun. 29, 2013 Rise Set
Actual Time 6:03 AM MDT 9:19 PM MDT
Civil Twilight 5:28 AM MDT 9:53 PM MDT
Nautical Twilight 4:43 AM MDT 10:38 PM MDT
Astronomical Twilight 3:49 AM MDT 11:33 PM MDT
Moon 12:41 AM MDT (6/29) 1:29 PM MDT (6/29)
Length of Visible Light 16h 25m
Length of Day
15h 15m
Waning Gibbous, 55% of the Moon is Illuminated
Jun 29
Waning Gibbous
Jun 29
Last Quarter
Jul 8
New
Jul 15
First Quarter
Jul 22
Full

Hourly Weather History & Observations

Time (MDT) Temp. Heat Index Dew Point Humidity Pressure Visibility Wind Dir Wind Speed Gust Speed Precip Events Conditions
12:53 AM 82.9 °F - 44.1 °F 25% 29.89 in 10.0 mi South 13.8 mph - N/A   Clear
1:53 AM 84.9 °F - 43.0 °F 23% 29.88 in 10.0 mi SSW 8.1 mph - N/A   Clear
2:53 AM 78.1 °F - 48.0 °F 35% 29.91 in 10.0 mi Variable 4.6 mph - N/A   Mostly Cloudy
3:53 AM 73.9 °F - 50.0 °F 43% 29.90 in 10.0 mi SSE 8.1 mph - N/A   Clear
4:53 AM 72.0 °F - 50.0 °F 46% 29.88 in 10.0 mi SE 9.2 mph - N/A   Clear
5:53 AM 72.0 °F - 46.9 °F 41% 29.88 in 10.0 mi East 6.9 mph - N/A   Clear
6:53 AM 71.1 °F - 50.0 °F 47% 29.88 in 10.0 mi SE 9.2 mph - N/A   Clear
7:53 AM 80.1 °F - 46.9 °F 31% 29.88 in 10.0 mi South 4.6 mph - N/A   Clear
8:53 AM 82.0 °F 81.4 °F 55.0 °F 39% 29.89 in 10.0 mi NW 5.8 mph - N/A   Clear
9:53 AM 84.0 °F 82.9 °F 55.0 °F 37% 29.89 in 10.0 mi NNE 6.9 mph - N/A   Clear
10:53 AM 87.1 °F 85.7 °F 55.9 °F 35% 29.88 in 10.0 mi NNE 4.6 mph - N/A   Clear
11:53 AM 91.0 °F 89.2 °F 55.9 °F 30% 29.86 in 10.0 mi NNE 5.8 mph - N/A   Clear
12:53 PM 96.1 °F - 52.0 °F 22% 29.85 in 10.0 mi North 5.8 mph - N/A   Clear
1:53 PM 99.0 °F - 46.9 °F 17% 29.82 in 10.0 mi NE 8.1 mph - N/A   Clear
2:53 PM 100.9 °F - 50.0 °F 18% 29.79 in 10.0 mi NE 9.2 mph - N/A   Clear
3:53 PM 99.0 °F - 48.0 °F 18% 29.78 in 10.0 mi NW 8.1 mph - N/A   Clear
4:53 PM 90.0 °F - 46.9 °F 23% 29.81 in 10.0 mi SE 16.1 mph - 0.00 in Rain , Thunderstorm Light Rain
5:32 PM 87.8 °F - 46.4 °F 24% 30.04 in 6.0 mi SSW 21.9 mph 35.7 mph 0.00 in Thunderstorm Unknown
5:53 PM 89.1 °F - 43.0 °F 20% 29.84 in 10.0 mi South 31.1 mph 38.0 mph 0.00 in Thunderstorm Thunderstorm
6:21 PM 89.6 °F - 42.8 °F 20% 30.00 in 10.0 mi South 24.2 mph 35.7 mph N/A   Partly Cloudy
6:53 PM 93.0 °F - 39.0 °F 15% 29.82 in 10.0 mi WSW 18.4 mph 27.6 mph 0.00 in   Mostly Cloudy
7:27 PM 89.6 °F - 42.8 °F 20% 30.01 in 10.0 mi SSW 19.6 mph 25.3 mph N/A   Clear
7:48 PM 87.8 °F - 44.6 °F 22% 29.99 in 9.0 mi West 35.7 mph 44.9 mph N/A   Partly Cloudy
7:53 PM 87.1 °F - 45.0 °F 23% 29.83 in 8.0 mi West 32.2 mph 47.2 mph N/A   Scattered Clouds
8:53 PM 86.0 °F - 45.0 °F 24% 29.79 in 10.0 mi WSW 9.2 mph - N/A   Clear
9:53 PM 90.0 °F - 37.0 °F 15% 29.76 in 10.0 mi Calm Calm - N/A   Partly Cloudy
10:53 PM 80.1 °F - 44.1 °F 28% 29.82 in 10.0 mi SSW 10.4 mph - N/A   Clear
11:53 PM 81.0 °F - 44.1 °F 27% 29.85 in 10.0 mi NNE 5.8 mph 17.3 mph N/A   Clear